This is the latest recevied weather packets stored in our database for station/object W7PLC. If no packets are shown the sender has not sent any weather packets the latest 10 day(s).
| Time | Temp. | Humidity | Pressure | Rain* | Wind** | Luminosity | Snow |
|---|---|---|---|---|---|---|---|
| 1777945369 | 20° C | 62% | 1008.6 hPa | 0 mm | - | 25 W/m² | - |
| 1777945066 | 20.56° C | 60% | 1008.6 hPa | 0 mm | - | 24 W/m² | - |
| 1777944763 | 20.56° C | 58% | 1008.8 hPa | 0 mm | - | 26 W/m² | - |
| 1777944461 | 21.11° C | 58% | 1008.5 hPa | 0 mm | - | 28 W/m² | - |
| 1777944158 | 21.11° C | 59% | 1008.9 hPa | 0 mm | - | 29 W/m² | - |
| 1777943853 | 21.11° C | 59% | 1008.8 hPa | 0 mm | - | 29 W/m² | - |
| 1777943551 | 21.11° C | 59% | 1008.8 hPa | 0 mm | - | 30 W/m² | - |
| 1777943246 | 21.67° C | 58% | 1008.8 hPa | 0 mm | - | 30 W/m² | - |
| 1777942943 | 21.67° C | 58% | 1008.8 hPa | 0 mm | - | 30 W/m² | - |
| 1777942640 | 22.22° C | 58% | 1008.6 hPa | 0 mm | - | 30 W/m² | - |
| 1777942337 | 22.78° C | 57% | 1008.8 hPa | 0 mm | - | 32 W/m² | - |
| 1777942034 | 22.22° C | 58% | 1008.7 hPa | 0 mm | - | 83 W/m² | - |
| 1777941730 | 22.22° C | 56% | 1008.8 hPa | 0 mm | - | 214 W/m² | - |
| 1777941428 | 22.78° C | 55% | 1008.6 hPa | 0 mm | - | 224 W/m² | - |
| 1777941126 | 23.89° C | 54% | 1008.7 hPa | 0 mm | - | 265 W/m² | - |
| 1777940821 | 23.89° C | 54% | 1008.7 hPa | 0 mm | - | 270 W/m² | - |
| 1777940519 | 24.44° C | 53% | 1008.5 hPa | 0 mm | - | 246 W/m² | - |
| 1777940216 | 24.44° C | 53% | 1008.5 hPa | 0 mm | - | 275 W/m² | - |
| 1777939914 | 25° C | 52% | 1008.5 hPa | 0 mm | - | 265 W/m² | - |
| 1777939610 | 25° C | 52% | 1008.6 hPa | 0 mm | - | 350 W/m² | - |
| 1777939308 | 25° C | 52% | 1008.6 hPa | 0 mm | - | 309 W/m² | - |
| 1777939004 | 25.56° C | 51% | 1008.5 hPa | 0 mm | - | 368 W/m² | - |
| 1777938701 | 25° C | 52% | 1008.5 hPa | 0 mm | - | 376 W/m² | - |
| 1777938399 | 25.56° C | 50% | 1008.5 hPa | 0 mm | - | 432 W/m² | - |
| 1777938096 | 25.56° C | 49% | 1008.5 hPa | 0 mm | - | 498 W/m² | - |
* Rain latest hour (hover to see other rain measurements)
** Current wind speed in m/s (hover to see current wind gust speed)